Meteo Giornale » Osservazioni meteo Italia » Genova-Sestri

ore: 16:50 - Osservazioni Meteo Genova-Sestri
Lat. 44° 25' N Lon. 8° 51' E Alt. 2 metri s.l.m.

nuvoloso Europe/Rome

8 °C

Nuvoloso

Temp. 24 Ore

4 °C

9 °C

Nord

18.5 Km/h

Dew point -5 °C

Umidità 39 %

Visibilità  10 Km

Il sole sorge alle ore 07:50

Il sole tramonta alle ore 17:22

Data e Ora Cielo e Fenomeni T °C DP °C Um. % Pres. hPa Vis. km Vento km/h
Oggi h: 16:50 nuvoloso Nuvoloso 8 -5 39 1024 10 N 18.5
Oggi h: 16:20 nuvoloso Nuvoloso 8 -5 39 1024 10 N 24
Oggi h: 15:50 nuvoloso Nuvoloso 8 -4 42 1024 10 N 22.2
Oggi h: 15:20 nuvoloso Nuvoloso 8 -4 42 1024 10 N 22.2
Oggi h: 14:50 nuvoloso Nuvoloso 8 -4 42 1024 10 N 20.3
Oggi h: 14:20 nuvoloso Nuvoloso 8 -4 42 1024 10 N 18.5
Oggi h: 13:50 nuvoloso Nuvoloso 7 -4 45 1024 10 N/NE 14.8
Oggi h: 13:20 nuvoloso Nuvoloso 8 -4 42 1024 10 N 16.7
Oggi h: 12:50 nuvoloso Nuvoloso 7 -4 45 1025 10 N 11.1
Oggi h: 12:20 nuvoloso Nuvoloso 7 -4 45 1025 10 NE 11.1
Oggi h: 11:50 nuvoloso Nuvoloso 7 -4 45 1025 10 N/NE 18.5
Oggi h: 11:20 nuvoloso Nuvoloso 7 -4 45 1025 10 NE 11.1
Oggi h: 10:50 sereno Sereno 7 -4 45 1025 10 NE 13
Oggi h: 10:20 sereno Sereno 7 -4 45 1025 10 NE 16.7
Oggi h: 09:50 sereno Sereno 7 -4 45 1025 10 NE 14.8
Oggi h: 09:20 sereno Sereno 6 -4 48 1025 10 E/NE 18.5
Oggi h: 08:50 sereno Sereno 5 -4 52 1025 10 NE 16.7
Oggi h: 08:20 sereno Sereno 5 -4 52 1025 10 NE 18.5
Oggi h: 07:50 sereno Sereno 4 -4 55 1025 10 NE 20.3
Oggi h: 07:20 sereno Sereno 5 -4 52 1024 10 E/NE 16.7
Oggi h: 06:50 sereno Sereno 5 -4 52 1024 10 NE 16.7
Oggi h: 06:20 sereno Sereno 5 -4 52 1024 10 NE 18.5
Oggi h: 05:50 sereno Sereno 5 -4 52 1024 10 NE 16.7
Oggi h: 05:20 sereno Sereno 5 -4 52 1024 10 NE 22.2
Oggi h: 04:50 sereno Sereno 5 -4 52 1024 10 NE 22.2
Oggi h: 04:20 sereno Sereno 5 -4 52 1025 10 NE 18.5
Oggi h: 03:50 sereno Sereno 5 -4 52 1025 10 NE 18.5
Oggi h: 03:20 sereno Sereno 5 -4 52 1025 10 NE 18.5
Oggi h: 02:50 sereno Sereno 5 -4 52 1025 10 NE 20.3
Oggi h: 02:20 sereno Sereno 5 -4 52 1025 10 NE 18.5
Oggi h: 01:50 sereno Sereno 6 -4 48 1025 10 NE 18.5
Oggi h: 01:20 sereno Sereno 6 -4 48 1025 10 NE 16.7
Oggi h: 00:50 sereno Sereno 6 -4 48 1025 10 NE 18.5
Oggi h: 00:20 sereno Sereno 6 -4 48 1026 10 NE 22.2
Ieri h: 23:50 sereno Sereno 6 -5 45 1026 10 NE 22.2
Ieri h: 23:20 sereno Sereno 6 -5 45 1026 10 NE 22.2
Ieri h: 22:50 sereno Sereno 6 -6 41 1025 10 NE 16.7
Ieri h: 22:20 sereno Sereno 6 -6 41 1025 10 NE 16.7
Ieri h: 21:50 sereno Sereno 7 -6 38 1025 10 NE 16.7
Ieri h: 21:20 sereno Sereno 7 -6 38 1025 10 NE 18.5
Ieri h: 20:50 sereno Sereno 7 -6 38 1025 10 NE 16.7
Ieri h: 20:20 sereno Sereno 7 -6 38 1026 10 NE 14.8
Ieri h: 19:50 sereno Sereno 7 -6 38 1026 10 NE 16.7
Ieri h: 19:20 sereno Sereno 7 -6 38 1026 10 NE 18.5
Ieri h: 18:50 sereno Sereno 7 -6 38 1025 10 NE 22.2
Ieri h: 18:20 sereno Sereno 7 -6 38 1025 10 NE 16.7
Ieri h: 17:50 sereno Sereno 7 -7 36 1025 10 NE 13
Ieri h: 17:20 sereno Sereno 8 -7 33 1025 10 NE 9.3
Ieri h: 16:50 sereno Sereno 9 -7 31 1025 10 NE 9.3